Simultaneous Nadir Overpasses (SNOs) Predictions

Prediction of SNOs between METOP-A and TERRA Satellite Orbit:

Table of predicted SNOs for the next 14.0 days since TLE Epoch: 3/29/2013
Index Date (METOP-A) Time (METOP-A) Lat,Lon (METOP-A) SZA (METOP-A ) Date (TERRA) Time (TERRA) Lat,Lon (TERRA) SZA (TERRA ) Distance(km) Time Diff (sec)
1 03/31/2013 18:00:24 81.29, -43.26 79.51 03/31/2013 18:00:59 81.28, -43.31 79.52 0.97 35
2 03/31/2013 18:51:04 -81.29, 124.51 100.45 03/31/2013 18:50:25 -81.30, 124.64 100.45 2.21 39
3 04/03/2013 13:34:50 81.29, 23.33 78.49 04/03/2013 13:35:15 81.30, 23.41 78.51 1.73 25
4 04/03/2013 14:25:30 -81.30,-168.89 101.48 04/03/2013 14:24:42 -81.30,-169.00 101.51 1.76 48
5 04/06/2013 09:09:16 81.29, 89.88 77.46 04/06/2013 09:09:32 81.29, 89.69 77.45 3.13 16
6 04/
